Dịch vụ đang nâng cấp, xin cảm ơn bạn!
<< > ... 92 93 94 95 96 ... 236 > >> Show 1861 - 1880 of 4706
STT Tên file Thể loại Kích thước Ngày
1861 Xem phim Re:Stage! Dream Days♪ - Tập 1.mp4 mp4 227.61 MB 2019-08-01
1862 Xem phim Tái Xuất - Tập full | Re: Born (2016).mp4 mp4 501.76 MB 2019-08-01
1863 Xem phim Tokyo Ghoul:re 2nd Season - Tập 12.mp4 mp4 163.76 MB 2019-08-01
1864 Xem phim Tokyo Ghoul:re 2nd Season - Tập 11.mp4 mp4 154.09 MB 2019-08-01
1865 Xem phim Tokyo Ghoul:re 2nd Season - Tập 9.mp4 mp4 151.61 MB 2019-08-01
1866 Xem phim Tokyo Ghoul:re 2nd Season - Tập 10.mp4 mp4 196.56 MB 2019-08-01
1867 Xem phim Tokyo Ghoul:re 2nd Season - Tập 8.mp4 mp4 200.40 MB 2019-08-01
1868 Xem phim Tokyo Ghoul:re 2nd Season - Tập 6.mp4 mp4 230.75 MB 2019-08-01
1869 Xem phim Tokyo Ghoul:re 2nd Season - Tập 7.mp4 mp4 199.69 MB 2019-08-01
1870 Xem phim Tokyo Ghoul:re 2nd Season - Tập 4.mp4 mp4 155.98 MB 2019-08-01
1871 Xem phim Tokyo Ghoul:re 2nd Season - Tập 5.mp4 mp4 151.88 MB 2019-08-01
1872 Xem phim Tokyo Ghoul:re 2nd Season - Tập 1.mp4 mp4 30.00 MB 2019-08-01
1873 Xem phim Tokyo Ghoul:re 2nd Season - Tập 2.mp4 mp4 122.98 MB 2019-08-01
1874 Xem phim Tokyo Ghoul:re 2nd Season - Tập 3.mp4 mp4 36.67 MB 2019-08-01
1875 [CFS] Tokyo Ghoul-re Season 2 Ep 1 (Preair).mp4 mp4 325.43 MB 2018-10-09
1876 [CFS] Tokyo Ghoul Re - 05 (MX 1280x720 x264 AAC).mp4 mp4 295.55 MB 2018-05-04
1877 [CFS] Tokyo Ghoul Re - 03 (MX 1280x720 x264 AAC).mp4 mp4 307.00 MB 2018-04-19
1878 [CFS] Tokyo Ghoul Re - 02 (MX 1280x720 x264 AAC).mp4 mp4 269.02 MB 2018-04-12
1879 Mywife-NO 00494 Yu Ishiguro Hatsu + re-Concert_2.MP4 MP4 726.00 MB 2018-02-07
1880 Re Loader Activator 1.3 RC 10.0.241.rar rar 1.73 MB 2016-11-13
Hỗ trợ
Chat ngay